ATLAS 5 CENTAUR DEB, 43982

Orbit data source: Space-Track

ATLAS 5 CENTAUR DEB, 43982 is space debris in HEO originally from a launch on Wed, 17 Sep 2014 UTC launched from the Air Force Eastern Test Range (AFETR). Debris objects in space refer to the collection of defunct objects orbiting the Earth. Examples of debris include non-operational satellites, rocket bodies, and fragments generated from explosions, collisions, or faulty payload assembly.

Loading next visibility...
Identifier
43982, 2014-055AM
Orbit
HEO
Last TLE update
21 hours ago
Origin
Flag of USUnited Launch Alliance/Lockheed Martin (US)
Manufacturer
Unknown
Mission
Spacecraft
Bus & Motor
Unknown
Mass
Unknown
Launch date (UTC)
2014-09-17 (11 years ago)
Launch vehicle
Unknown
Launch site
Air Force Eastern Test Range (AFETR)
Object type
Payload
Rocket body
Debris
Shape & HBR
Unknown
Radar Cross Section
RCS unknown

Expand to show TLE details & history

TLE from 21 hours ago
0 ATLAS 5 CENTAUR DEB
1 43982U 14055AM  25191.25831187 -.00000004  00000-0  00000-0 0  9999
2 43982  19.6368 221.9653 4661072  30.5098 350.0249  1.75471238 43817
Epoch: 2025-07-10T06:11Z
TLE epoch observation values (Epoch: 2025-07-10T06:11:58.145Z)
Latitude
-0.00001°
Longitude
-159.44025°
Altitude
9,825.327 km
Speed
5.956 km/s
True Right ascension
14h 47m 55s
True Declination
0° 00' 00"
Sunlit
Object was in daylight at epoch
Visualization orbit readout
Latitude
-9.07007°
Longitude
47.0888°
Altitude
36,163.143 km
Speed
2.239 km/s
Apparent Right ascension
04h 25m 08s
Apparent Declination
-13° 00' 53"
Sunlit
Object is in daylight
Visualization observer readout
Local Sidereal Time
15:07:25
Azimuth
322.138° NNW
Elevation
-58.129°
Doppler factor
1
Orbital elements
Apogee altitude
36,193.899 km
Perigee altitude
9,124.756 km
Semi-major axis
29,037.465 km
Eccentricity
0.46611
Inclination
19.6368°
RAAN
221.9653°
Arg. of periapsis
30.5098°
True anomaly
Unknown
Mean anomaly
350.0249°
Eccentric anomaly
Unknown
Mean motion
0.43864 °/min
Orbital period
820.72 mins
BSTAR
0
Loading maneuver chart data...
Loading SW <> Apogee altitude chart data...
Loading historical data...
Loading historical data...
Loading historical data...
Loading historical data...
Loading historical data...
Loading historical data...
Loading historical data...

ATLAS 5 CENTAUR DEB Visibility forecast

Observer location: undefined°, undefined°

Span
Click to sort rows by Start time (UTC) header in descending order
Start Az.
Max El. time (UTC)
Max El. Az.
Max El.
End time (UTC)
End Az.
769 mins2025-07-11 10:17:48.105Z263.66° W2025-07-11 11:34:48.105Z197.238° SSW39.737°2025-07-11 23:06:48.105Z127.258° SE
|